STARLINK-34135, 63964

Orbit data source: Space-Track

STARLINK-34135, 63964 is a payload satellite owned by SpaceX/Seattle (US) in LEO that was launched on Tue, 13 May 2025 UTC via an FALCON 9 launch vehicle from the Air Force Eastern Test Range (AFETR). Payload-class satellites include a variety of spacecraft equipped with specific instruments for various scientific and technological missions. These include communications satellites like Starlink; space stations such as the ISS; scientific satellites like the Hubble; Earth observation satellites from companies like Planet Labs, Umbra, and HawkEye 360; GPS; miniature CubeSats for education and research; and military/defense satellites.

Loading next visibility...
Identifier
63964, 2025-099N
Orbit
LEO
Country
Flag of USUS
Related business
Manufacturer
SpaceX/Seattle
Mission
Operational Commercial Communications
Bus & Motor
STARLINK V2MO, Unknown motor
Mass
575 kg wet, ~530 kg dry
Launch date (UTC)
2025-05-13 (7 months ago)
Launch vehicle
FALCON 9
Launch site
Air Force Eastern Test Range (AFETR)
Object type
Payload
Rocket body
Debris
Shape & HBR
Box + 2 Pan, 17.7 m
Radar Cross Section
36.964 m², Large (>1 m²)

Expand to show TLE details & history
Last TLE update: 1 day ago

TLE from 1 day ago
0 STARLINK-34135
1 63964U 25099N   25346.24417667  .00055712  00000-0  20192-2 0  9996
2 63964  43.0002 309.9801 0001932 267.5122  92.5509 15.27572551 33960
Epoch: 2025-12-12T05:51Z
TLE epoch observation values (Epoch: 2025-12-12T05:51:36.864Z)
Latitude
0.00003°
Longitude
140.88795°
Altitude
482.906 km
Speed
7.626 km/s
True Right ascension
20h 39m 55s
True Declination
0° 00' 00"
Sunlit
Object was in daylight at epoch
Visualization orbit readout
Latitude
Unknown
Longitude
Unknown
Altitude
Unknown
Speed
Unknown
Apparent Right ascension
Unknown
Apparent Declination
Unknown
Sunlit
N/A
Visualization observer readout
Local Sidereal Time
07:28:06
Azimuth
Unknown
Elevation
Unknown
Doppler factor
Unknown
Orbital elements
Apogee altitude
486.342 km
Perigee altitude
483.691 km
Semi-major axis
6,863.154 km
Eccentricity
0.00019
Inclination
43.0002°
RAAN
309.9801°
Arg. of periapsis
267.5122°
True anomaly
92.57302°
Mean anomaly
92.5509°
Eccentric anomaly
92.56196°
Mean motion
3.81731 °/min
Orbital period
94.31 mins
BSTAR
0.0020192
Loading maneuver chart data...
Computing Atmospheric mass density...
Loading historical data...
Loading historical data...
Loading historical data...
Loading historical data...
Loading historical data...
Loading historical data...
Loading historical data...

Documentation

Showing up to 5 results
|